User: anonymous   Login
Location: Unspecified
(0.0000°N, 0.0000°E)
Time: 09:23:01
(UTC+00:00)
Language:

ATS 6 - Orbit

View from above orbital plane
View from above orbital plane
View from above satellite
View from above satellite

Ground track
Ground track

The orbit data is extracted from the following two-line orbital elements,

1  7318U 74039A   17086.24909265 -.00000136 +00000-0 +00000-0 0  9992
2  7318 009.7345 309.1555 0027796 221.0822 328.6068 01.01980602087640
Epoch (UTC): 27 March 2017 05:58:41
Eccentricity: 0.0027796
inclination: 9.7345°
perigee height: 35198 km
apogee height: 35430 km
right ascension of ascending node: 309.1555°
argument of perigee: 221.0822°
revolutions per day: 1.01980602
mean anomaly at epoch: 328.6068°
orbit number at epoch: 8764

The dashed part of the orbit path shows where the satellite is in the earth's shadow,  

DLR